Погода в Ульянине

Россия / Саратовская область     52°26′11″N   47°54′26″E
темп.,
°C
ветер,
м/с
пор.,
м/с
влажн.,
%
обл.,
%
осадки,
мм/ч
давл.,
гПа
погр.,
м
30 ноября, вт
вт3001:00+2ююв81889100 0.0 1009497
04:00+3ю102287100 0.3 1006611
07:00+2ююв112485100 1.3 1001672
10:00+2ю112195100 10.8 999671
13:00+4ю112191100 2.6 996614
16:00+7ююз9179476 4.3 995608
19:00+6ююз6149517 0.0 996307
22:00+5юз8178311 0.1 997441
1 декабря, ср
ср101:00+2ююз348293 0.0 99640
04:00+2ю229599 0.0 99633
07:00+2ююв1191100 0.1 99420
10:00+3св2399100 3.8 989105
13:00+2с3599100 5.9 986217
16:000сз10159799 10.4 989667
19:00−1з814845 0.1 994617
22:00−3з614855 0.1 998462
2 декабря, чт
чт201:00−3зюз5118665 0.0 1001376
04:00−3юз4108739 0.0 1003335
07:00−3юз5128926 0.0 1003409
10:00−2юз71391100 0.0 1005615
13:00−1зюз7128865 0.0 1006924
16:00−2з610809 0.1 1008592
19:00−3зюз6118587 0.0 1011433
22:00−3юз6128297 0.0 1011482
3 декабря, пт
пт301:00−2юз61384100 0.0 1012499
04:00−1юз71495100 0.3 1011513
07:000юз71596100 0.1 1011555
10:00+1юз61496100 0.1 1013479
13:00+2юз61298100 0.1 1014409
16:00+2юз51198100 0.1 1016361
19:00+2юз41096100 0.0 1018291
22:00+2ю4899100 0.1 1018255
4 декабря, сб
сб401:00+2ююз51297100 0.0 1017382
04:00+3ююз6158273 0.0 1017432
07:00+2ююз71884100 0.0 1017467
10:00+2ююз81992100 0.0 1016518
13:00+4ююз91890100 0.0 1016629
16:00+4ююз81691100 0.0 1015604
19:00+4ююз71593100 0.9 1016616
22:00+4ююз71595100 1.9 1016632